EW4757 Weather Reports


time (UTC)temp
F
wind
direction
speed
knots
gust
knots
rain 1hr
in
rain 24hr
in
rain mn
in
humidity
%
barometer
mb
20260506033531 72 321 1.7 4.3 0.00 0.00 0.00 47 1008.8
20260506033031 72 300 1.7 5.2 0.00 0.00 0.00 47 1008.8
20260506032531 72 297 1.7 5.2 0.00 0.00 0.00 47 1008.9
20260506032031 72 307 0.9 3.5 0.00 0.00 0.00 46 1008.8
20260506031531 72 319 0.9 5.2 0.00 0.00 0.00 46 1009.0
20260506031031 72 302 0.9 3.5 0.00 0.00 0.00 46 1009.0
20260506030532 73 290 0.9 3.5 0.00 0.00 0.00 45 1009.0
20260506030030 73 296 0.9 3.5 0.00 0.00 0.00 44 1008.9
20260506025530 73 316 0.9 3.5 0.00 0.00 0.00 44 1008.9
20260506025033 73 287 1.7 3.5 0.00 0.00 0.00 43 1008.9
20260506024540 73 304 0.9 6.1 0.00 0.00 0.00 42 1009.0
20260506024031 73 310 0.9 6.1 0.00 0.00 0.00 42 1008.9
20260506023530 73 295 1.7 7.0 0.00 0.00 0.00 41 1008.9
20260506023028 74 333 0.0 7.0 0.00 0.00 0.00 41 1008.8
20260506022529 74 301 0.0 7.0 0.00 0.00 0.00 40 1008.9
20260506022030 74 283 0.9 7.0 0.00 0.00 0.00 40 1008.9
20260506021543 74 299 0.9 5.2 0.00 0.00 0.00 40 1008.9
20260506021028 74 290 2.6 7.8 0.00 0.00 0.00 40 1008.9
20260506020531 74 303 1.7 6.1 0.00 0.00 0.00 40 1009.0
20260506020029 74 307 0.9 3.5 0.00 0.00 0.00 39 1009.0
20260506015529 74 314 0.0 3.5 0.00 0.00 0.00 39 1008.9
20260506015029 74 321 0.0 2.6 0.00 0.00 0.00 39 1008.8
20260506014528 75 331 0.9 2.6 0.00 0.00 0.00 38 1008.8
20260506014027 75 306 0.9 3.5 0.00 0.00 0.00 38 1008.8
20260506013527 75 305 0.9 3.5 0.00 0.00 0.00 37 1008.7
20260506013027 75 312 0.9 3.5 0.00 0.00 0.00 37 1008.7
20260506012527 75 313 0.0 4.3 0.00 0.00 0.00 36 1008.6
20260506012028 76 312 0.9 4.3 0.00 0.00 0.00 36 1008.5
20260506011529 76 300 1.7 4.3 0.00 0.00 0.00 35 1008.5
20260506011030 76 302 0.9 4.3 0.00 0.00 0.00 35 1008.4
20260506010527 76 335 1.7 4.3 0.00 0.00 0.00 35 1008.4
20260506010031 76 323 0.9 4.3 0.00 0.00 0.00 34 1008.4
20260506005525 76 293 0.9 5.2 0.00 0.00 0.00 34 1008.3
20260506005029 77 153 1.7 7.0 0.00 0.00 0.00 33 1008.2
20260506004524 77 332 1.7 7.0 0.00 0.00 0.00 33 1008.1
20260506004025 77 319 1.7 7.0 0.00 0.00 0.00 32 1008.1
20260506003525 77 302 2.6 7.0 0.00 0.00 0.00 32 1008.0
20260506003025 77 316 2.6 5.2 0.00 0.00 0.00 32 1008.0
20260506002528 77 305 1.7 5.2 0.00 0.00 0.00 31 1007.9
20260506002024 78 302 2.6 5.2 0.00 0.00 0.00 31 1007.9
20260506001524 78 303 1.7 6.1 0.00 0.00 0.00 30 1007.9
20260506001024 78 329 1.7 6.1 0.00 0.00 0.00 30 1007.8
20260506000524 78 299 2.6 5.2 0.00 0.00 0.00 29 1007.8
20260506000023 78 297 2.6 5.2 0.00 0.00 0.00 29 1007.8
20260505235523 78 300 2.6 7.0 0.00 0.00 0.00 28 1007.8
20260505235023 79 293 3.5 7.0 0.00 0.00 0.00 27 1007.7
20260505234523 79 308 2.6 8.7 0.00 0.00 0.00 27 1007.7
20260505234022 79 312 5.2 8.7 0.00 0.00 0.00 26 1007.6
20260505233523 79 296 4.3 8.7 0.00 0.00 0.00 26 1007.7
20260505233022 79 321 4.3 8.7 0.00 0.00 0.00 26 1007.7
20260505232522 80 314 2.6 6.1 0.00 0.00 0.00 28 1007.7
20260505232023 80 305 2.6 6.1 0.00 0.00 0.00 28 1007.6
20260505231527 80 302 2.6 7.0 0.00 0.00 0.00 28 1007.6
20260505231021 80 289 2.6 7.0 0.00 0.00 0.00 28 1007.6
20260505230521 80 291 2.6 6.1 0.00 0.00 0.00 28 1007.6
20260505230023 80 305 2.6 7.0 0.00 0.00 0.00 27 1007.7
20260505225522 80 303 4.3 7.0 0.00 0.00 0.00 27 1007.7
20260505225022 81 304 3.5 7.0 0.00 0.00 0.00 26 1007.7
20260505224527 81 316 2.6 7.0 0.00 0.00 0.00 27 1007.7
20260505224021 81 326 4.3 7.8 0.00 0.00 0.00 26 1007.6
20260505223520 81 305 4.3 7.8 0.00 0.00 0.00 26 1007.6
20260505223020 81 302 4.3 7.0 0.00 0.00 0.00 26 1007.7
20260505222519 81 307 3.5 7.8 0.00 0.00 0.00 27 1007.9
20260505222019 81 315 5.2 7.8 0.00 0.00 0.00 27 1007.8
20260505221519 81 305 1.7 7.0 0.00 0.00 0.00 28 1007.7
20260505221018 81 318 2.6 8.7 0.00 0.00 0.00 28 1007.8
20260505220518 81 307 4.3 8.7 0.00 0.00 0.00 27 1007.7
20260505220019 81 307 2.6 8.7 0.00 0.00 0.00 27 1007.6
20260505215518 82 294 4.3 8.7 0.00 0.00 0.00 27 1007.5
20260505215018 82 333 3.5 7.8 0.00 0.00 0.00 27 1007.5
20260505214518 82 314 2.6 7.8 0.00 0.00 0.00 27 1007.6
20260505214018 82 320 2.6 6.1 0.00 0.00 0.00 27 1007.4
20260505213517 82 295 3.5 9.6 0.00 0.00 0.00 27 1007.5
20260505213019 82 306 3.5 9.6 0.00 0.00 0.00 27 1007.4
20260505212520 82 299 3.5 8.7 0.00 0.00 0.00 27 1007.5
20260505212016 82 305 2.6 9.6 0.00 0.00 0.00 27 1007.5
20260505211533 82 313 5.2 9.6 0.00 0.00 0.00 26 1007.5
20260505211016 82 305 5.2 9.6 0.00 0.00 0.00 27 1007.5
20260505210516 83 316 3.5 7.8 0.00 0.00 0.00 27 1007.5
20260505210016 82 309 3.5 7.8 0.00 0.00 0.00 26 1007.6
20260505205517 82 295 4.3 8.7 0.00 0.00 0.00 26 1007.5
20260505205015 82 313 4.3 8.7 0.00 0.00 0.00 26 1007.5
20260505204514 83 305 3.5 8.7 0.00 0.00 0.00 27 1007.5
20260505204014 83 345 2.6 7.8 0.00 0.00 0.00 26 1007.5
20260505203514 83 296 4.3 7.0 0.00 0.00 0.00 26 1007.4
20260505203014 83 289 3.5 9.6 0.00 0.00 0.00 25 1007.5
20260505202514 83 329 5.2 9.6 0.00 0.00 0.00 25 1007.5
20260505202013 83 299 3.5 7.8 0.00 0.00 0.00 24 1007.4
20260505201512 83 314 3.5 10.4 0.00 0.00 0.00 25 1007.5
20260505201015 83 322 4.3 9.6 0.00 0.00 0.00 24 1007.5
20260505200512 84 302 4.3 8.7 0.00 0.00 0.00 24 1007.5
20260505200011 84 316 3.5 10.4 0.00 0.00 0.00 24 1007.6
20260505195510 84 302 7.0 10.4 0.00 0.00 0.00 24 1007.6
20260505195009 83 300 5.2 11.3 0.00 0.00 0.00 25 1007.6
20260505194509 84 297 6.1 11.3 0.00 0.00 0.00 25 1007.7
20260505194010 84 312 4.3 8.7 0.00 0.00 0.00 25 1007.8
20260505193508 83 273 4.3 10.4 0.00 0.00 0.00 25 1007.8
20260505193007 84 326 4.3 7.8 0.00 0.00 0.00 26 1007.9
20260505192506 84 298 3.5 7.0 0.00 0.00 0.00 26 1007.9
20260505192005 85 317 3.5 6.1 0.00 0.00 0.00 26 1007.9
20260505191504 84 311 2.6 8.7 0.00 0.00 0.00 27 1008.0
20260505191002 83 297 2.6 8.7 0.00 0.00 0.00 28 1008.2
20260505190502 84 305 3.5 7.0 0.00 0.00 0.00 28 1008.2
20260505190103 83 314 2.6 7.8 0.00 0.00 0.00 28 1008.4
20260505185600 84 286 3.5 7.8 0.00 0.00 0.00 28 1008.4
20260505185059 84 315 2.6 8.7 0.00 0.00 0.00 29 1008.4
20260505184559 84 295 4.3 8.7 0.00 0.00 0.00 28 1008.5
20260505184057 83 300 1.7 7.8 0.00 0.00 0.00 30 1008.6
20260505183556 83 318 3.5 9.6 0.00 0.00 0.00 30 1008.6
20260505183055 83 288 2.6 9.6 0.00 0.00 0.00 29 1008.7
20260505182557 83 308 2.6 8.7 0.00 0.00 0.00 31 1008.6
20260505182056 83 302 2.6 8.7 0.00 0.00 0.00 31 1008.7
20260505181553 83 290 4.3 7.8 0.00 0.00 0.00 30 1008.8
20260505181052 83 292 2.6 5.2 0.00 0.00 0.00 31 1009.0
20260505180551 84 319 2.6 6.1 0.00 0.00 0.00 30 1009.1
20260505180055 83 290 0.9 6.1 0.00 0.00 0.00 33 1009.1
20260505175549 83 285 1.7 7.0 0.00 0.00 0.00 31 1009.2
20260505175050 82 293 3.5 7.0 0.00 0.00 0.00 31 1009.2
20260505174548 83 298 3.5 7.0 0.00 0.00 0.00 31 1009.4
20260505174047 83 321 3.5 7.0 0.00 0.00 0.00 30 1009.4
20260505173547 83 305 1.7 5.2 0.00 0.00 0.00 31 1009.4
20260505173046 83 235 0.9 7.0 0.00 0.00 0.00 32 1009.3
20260505172549 82 60 0.9 7.0 0.00 0.00 0.00 33 1009.4
20260505172045 82 305 3.5 6.1 0.00 0.00 0.00 31 1009.5
20260505171545 82 305 1.7 4.3 0.00 0.00 0.00 32 1009.6
20260505171045 82 300 1.7 7.0 0.00 0.00 0.00 31 1009.6
20260505170544 82 301 2.6 7.0 0.00 0.00 0.00 31 1009.7
20260505170044 82 312 0.9 5.2 0.00 0.00 0.00 32 1009.8
20260505165545 82 327 0.0 5.2 0.00 0.00 0.00 33 1009.9
20260505165042 81 311 1.7 5.2 0.00 0.00 0.00 32 1009.9
20260505164641 81 156 0.9 5.2 0.00 0.00 0.00 33 1010.0
20260505164043 81 290 2.6 9.6 0.00 0.00 0.00 32 1010.1
20260505163540 81 217 0.9 7.0 0.00 0.00 0.00 34 1010.1
20260505163040 80 312 0.9 7.0 0.00 0.00 0.00 33 1010.2
20260505162543 80 302 1.7 4.3 0.00 0.00 0.00 33 1010.4
20260505162038 80 303 1.7 7.0 0.00 0.00 0.00 33 1010.4
20260505161540 80 307 0.9 7.0 0.00 0.00 0.00 34 1010.5
20260505161038 80 300 1.7 7.0 0.00 0.00 0.00 34 1010.6
20260505160539 80 286 1.7 6.1 0.00 0.00 0.00 34 1010.6
20260505153038 79 300 0.9 3.5 0.00 0.00 0.00 39 1010.9
20260505152533 78 315 0.0 3.5 0.00 0.00 0.00 38 1010.8
20260505152033 78 294 0.9 4.3 0.00 0.00 0.00 40 1010.8
20260505151539 78 291 1.7 4.3 0.00 0.00 0.00 38 1010.8
20260505151031 78 304 0.9 4.3 0.00 0.00 0.00 40 1010.8
20260505150530 78 315 0.9 3.5 0.00 0.00 0.00 39 1010.8
20260505140521 73 296 0.9 2.6 0.00 0.00 0.00 46 1011.0
20260505125002 67 301 0.0 3.5 0.00 0.00 0.00 54 1011.3
20260505124603 67 309 0.9 3.5 0.00 0.00 0.00 54 1011.4
20260505124102 67 296 0.9 2.6 0.00 0.00 0.00 54 1011.4
20260505123557 66 296 0.0 1.7 0.00 0.00 0.00 55 1011.4
20260505123058 65 301 0.0 3.5 0.00 0.00 0.00 55 1011.4
20260505122557 65 308 0.9 4.3 0.00 0.00 0.00 55 1011.4
20260505122057 64 297 1.7 4.3 0.00 0.00 0.00 56 1011.4
20260505121600 64 294 0.9 3.5 0.00 0.00 0.00 56 1011.4
20260505121057 64 302 0.9 3.5 0.00 0.00 0.00 57 1011.4
20260505120557 64 304 1.7 3.5 0.00 0.00 0.00 56 1011.3
20260505120111 63 307 0.9 3.5 0.00 0.00 0.00 57 1011.3
20260505115555 63 319 1.7 4.3 0.00 0.00 0.00 57 1011.3
20260505115055 63 300 1.7 4.3 0.00 0.00 0.00 58 1011.1
20260505114557 62 307 1.7 4.3 0.00 0.00 0.00 58 1011.1
20260505114054 62 303 2.6 4.3 0.00 0.00 0.00 58 1011.1
20260505113557 62 311 0.9 5.2 0.00 0.00 0.00 59 1011.0
20260505113101 61 308 1.7 5.2 0.00 0.00 0.00 59 1011.1
20260505112551 61 297 1.7 5.2 0.00 0.00 0.00 60 1011.0
20260505112052 61 312 2.6 5.2 0.00 0.00 0.00 59 1011.0
20260505111552 61 293 1.7 5.2 0.00 0.00 0.00 60 1011.0
20260505111051 61 297 1.7 5.2 0.00 0.00 0.00 60 1010.9
20260505110550 61 305 1.7 4.3 0.00 0.00 0.00 60 1010.8
20260505102043 60 290 2.6 5.2 0.00 0.00 0.00 61 1010.2
20260505101546 60 311 1.7 4.3 0.00 0.00 0.00 61 1010.2
20260505101043 60 300 1.7 4.3 0.00 0.00 0.00 62 1010.2
20260505100543 60 313 1.7 4.3 0.00 0.00 0.00 62 1010.2
20260505100043 60 293 0.9 4.3 0.00 0.00 0.00 62 1010.2
20260505095542 60 303 1.7 4.3 0.00 0.00 0.00 62 1010.2
20260505095043 60 307 1.7 5.2 0.00 0.00 0.00 62 1010.2
20260505094540 60 299 1.7 5.2 0.00 0.00 0.00 62 1010.1
20260505094040 60 300 2.6 5.2 0.00 0.00 0.00 62 1010.1
20260505093540 60 293 1.7 5.2 0.00 0.00 0.00 62 1010.0
20260505093051 60 308 2.6 5.2 0.00 0.00 0.00 62 1010.0
20260505092539 60 312 1.7 4.3 0.00 0.00 0.00 62 1010.0
20260505092044 60 298 1.7 4.3 0.00 0.00 0.00 62 1010.0
20260505091539 61 310 1.7 4.3 0.00 0.00 0.00 62 1009.9
20260505091038 61 299 1.7 3.5 0.00 0.00 0.00 63 1010.0
20260505090540 60 284 1.7 3.5 0.00 0.00 0.00 63 1010.0
20260505090038 60 304 0.9 3.5 0.00 0.00 0.00 63 1010.0
20260505085542 60 313 1.7 3.5 0.00 0.00 0.00 63 1010.0
20260505085040 60 321 0.9 3.5 0.00 0.00 0.00 64 1010.0
20260505084537 60 308 0.9 2.6 0.00 0.00 0.00 64 1010.1
20260505084035 60 302 0.0 2.6 0.00 0.00 0.00 64 1010.0
20260505083538 61 306 0.0 3.5 0.00 0.00 0.00 64 1009.9
20260505083040 61 308 0.9 3.5 0.00 0.00 0.00 64 1009.9
20260505082536 61 309 1.7 3.5 0.00 0.00 0.00 63 1009.9
20260505082035 61 295 1.7 3.5 0.00 0.00 0.00 63 1009.9
20260505081535 61 300 1.7 3.5 0.00 0.00 0.00 63 1009.9
20260505081035 61 301 1.7 3.5 0.00 0.00 0.00 64 1009.9
20260505080533 61 295 0.9 3.5 0.00 0.00 0.00 64 1009.9
20260505080035 61 305 0.9 3.5 0.00 0.00 0.00 64 1009.9
20260505075533 61 297 0.9 2.6 0.00 0.00 0.00 64 1009.9
20260505075034 61 306 0.9 2.6 0.00 0.00 0.00 64 1009.8
20260505074534 62 316 0.9 2.6 0.00 0.00 0.00 64 1009.7
20260505074032 62 310 0.9 3.5 0.00 0.00 0.00 63 1009.7
20260505073532 62 304 0.9 3.5 0.00 0.00 0.00 63 1009.6
20260505073133 62 333 0.9 3.5 0.00 0.00 0.00 63 1009.5
20260505072531 62 300 0.9 3.5 0.00 0.00 0.00 63 1009.5
20260505072031 62 294 1.7 5.2 0.00 0.00 0.00 63 1009.6
20260505071533 62 301 1.7 5.2 0.00 0.00 0.00 63 1009.6
20260505071031 62 306 0.9 2.6 0.00 0.00 0.00 63 1009.6
20260505070531 62 297 0.0 1.7 0.00 0.00 0.00 63 1009.6
20260505070034 62 315 0.0 2.6 0.00 0.00 0.00 63 1009.6
20260505065531 62 301 0.0 3.5 0.00 0.00 0.00 63 1009.6
20260505065030 63 307 0.0 3.5 0.00 0.00 0.00 63 1009.6
20260505064529 63 304 0.0 3.5 0.00 0.00 0.00 63 1009.6
20260505064030 63 286 0.9 3.5 0.00 0.00 0.00 62 1009.6
20260505063529 62 298 0.0 2.6 0.00 0.00 0.00 63 1009.6
20260505063030 62 316 0.0 2.6 0.00 0.00 0.00 64 1009.7
20260505062530 62 300 0.9 2.6 0.00 0.00 0.00 64 1009.6
20260505062029 62 287 0.0 1.7 0.00 0.00 0.00 65 1009.6
20260505061538 62 311 0.0 1.7 0.00 0.00 0.00 64 1009.6
20260505061032 62 306 0.0 1.7 0.00 0.00 0.00 65 1009.6
20260505060529 61 309 0.0 1.7 0.00 0.00 0.00 66 1009.6
20260505060029 61 312 0.0 0.9 0.00 0.00 0.00 68 1009.7
20260505055529 60 294 0.0 0.9 0.00 0.00 0.00 68 1009.6
20260505055029 60 306 0.0 0.9 0.00 0.00 0.00 68 1009.5
20260505054541 60 306 0.0 0.9 0.00 0.00 0.00 69 1009.5
20260505054027 60 284 0.0 0.0 0.00 0.00 0.00 69 1009.5
20260505053527 60 284 0.0 0.0 0.00 0.00 0.00 68 1009.6
20260505053027 60 284 0.0 0.0 0.00 0.00 0.00 68 1009.5
20260505052526 60 284 0.0 0.0 0.00 0.00 0.00 68 1009.4
20260505052025 61 284 0.0 0.0 0.00 0.00 0.00 67 1009.5
20260505051523 61 284 0.0 0.0 0.00 0.00 0.00 66 1009.6
20260505051022 61 284 0.0 0.9 0.00 0.00 0.00 66 1009.6
20260505050521 62 284 0.0 0.9 0.00 0.00 0.00 65 1009.6
20260505041508 65 304 0.0 2.6 0.00 0.00 0.00 58 1009.9
20260505041008 66 302 0.0 3.5 0.00 0.00 0.00 57 1009.7
20260505040507 66 289 0.9 3.5 0.00 0.00 0.00 57 1009.7
20260505040016 66 295 0.9 3.5 0.00 0.00 0.00 56 1009.8
20260505035511 66 286 1.7 3.5 0.00 0.00 0.00 56 1009.8
20260505035005 66 319 0.9 3.5 0.00 0.00 0.00 56 1009.7
20260505034505 66 304 0.9 3.5 0.00 0.00 0.00 55 1009.7